This is the latest recevied weather packets stored in our database for station/object VK5GR-12. If no packets are shown the sender has not sent any weather packets the latest 10 day(s).
| Time | Temp. | Humidity | Pressure | Rain* | Wind** | Luminosity | Snow |
|---|---|---|---|---|---|---|---|
| 1777935739 | 13.33° C | 99% | 1023 hPa | 0 mm | - | 91 W/m² | - |
| 1777934837 | 12.78° C | 99% | 1022.8 hPa | 0 mm | - | 68 W/m² | - |
| 1777933931 | 12.78° C | 99% | 1022.8 hPa | 0 mm | - | 58 W/m² | - |
| 1777933029 | 12.78° C | 99% | 1022.6 hPa | 0 mm | - | 34 W/m² | - |
| 1777932126 | 12.22° C | 99% | 1022.4 hPa | 0 mm | - | 26 W/m² | - |
| 1777931226 | 12.22° C | 99% | 1022.3 hPa | 0 mm | - | 18 W/m² | - |
| 1777930322 | 12.22° C | 99% | 1022.2 hPa | 0 mm | - | 7 W/m² | - |
| 1777929419 | 11.67° C | 99% | 1022 hPa | 1.78 mm | - | 1 W/m² | - |
| 1777928515 | 11.67° C | 99% | 1021.6 hPa | 0 mm | - | 0 W/m² | - |
| 1777927614 | 11.67° C | 99% | 1021.6 hPa | 0 mm | - | 0 W/m² | - |
| 1777926714 | 11.67° C | 99% | 1021.6 hPa | 0 mm | - | 0 W/m² | - |
| 1777925814 | 11.67° C | 99% | 1021.4 hPa | 0 mm | - | 0 W/m² | - |
| 1777924911 | 12.22° C | 99% | 1021.2 hPa | 0 mm | - | 0 W/m² | - |
| 1777924006 | 11.67° C | 99% | 1021.3 hPa | 0 mm | - | 0 W/m² | - |
| 1777923102 | 11.67° C | 99% | 1021.1 hPa | 0 mm | - | 0 W/m² | - |
| 1777922202 | 11.67° C | 99% | 1020.9 hPa | 0 mm | - | 0 W/m² | - |
| 1777921297 | 11.67° C | 98% | 1020.8 hPa | 0 mm | - | 0 W/m² | - |
| 1777920398 | 11.67° C | 98% | 1020.8 hPa | 0 mm | - | 0 W/m² | - |
| 1777919493 | 12.22° C | 98% | 1020.7 hPa | 0 mm | - | 0 W/m² | - |
| 1777918591 | 11.67° C | 98% | 1020.5 hPa | 1.78 mm | - | 0 W/m² | - |
| 1777917686 | 11.67° C | 98% | 1020.5 hPa | 0 mm | - | 0 W/m² | - |
| 1777916784 | 12.22° C | 98% | 1020.6 hPa | 0 mm | - | 0 W/m² | - |
| 1777915880 | 11.67° C | 98% | 1020.6 hPa | 1.78 mm | - | 0 W/m² | - |
| 1777914975 | 11.67° C | 98% | 1020.7 hPa | 0 mm | - | 0 W/m² | - |
| 1777914072 | 11.67° C | 98% | 1020.9 hPa | 0 mm | - | 0 W/m² | - |
* Rain latest hour (hover to see other rain measurements)
** Current wind speed in m/s (hover to see current wind gust speed)